Regional Weather Roundup
Issued by NWS Charleston, SC

Current Version | Previous Version | Graphics & Text | Print | Product List | Glossary On
Versions: 1 2 3 4 5 6 7 8 9 10 11 12 13 14 15 16 17 18 19 20 21 22 23 24 25 26 27 28 29 30 31 32 33 34 35 36 37 38 39 40 41 42 43 44 45 46 47 48 49 50
000
ASUS42 KCHS 241613
RWRCHS

REGIONAL WEATHER ROUNDUP
NATIONAL WEATHER SERVICE CHARLESTON SC
1200 PM EDT SAT SEP 24 2016

NOTE: "FAIR" INDICATES FEW OR NO CLOUDS BELOW 12,000 FEET WITH NO
SIGNIFICANT WEATHER AND/OR OBSTRUCTIONS TO VISIBILITY.

NOT ALL STATIONS ARE QUALITY CONTROLLED. USE DATA WITH CAUTION...
ESPECIALLY DEWPOINT OBSERVATIONS.

SCZ027-030-031-034>040-042>050-241700-
...SOUTHEAST SOUTH CAROLINA...

CITY           SKY/WX    TMP DP  RH WIND       PRES   REMARKS
N CHARLESTON   MOSUNNY   85  72  65 N10       30.06S HX  91
WATERFRONT PRK   N/A     80  74  82 N8        30.04S
MOUNT PLEASANT FAIR      84  73  70 CALM      30.06S HX  91
JOHNS ISLAND   FAIR      84  75  74 NW8       30.06S HX  92
PINOPOLIS        N/A     79  73  83 VRB3      30.01S
MONCKS CORNER  FAIR      81  72  74 N7        30.07S
SUMMERVILLE    FAIR      82  72  69 N5        30.08S
BEAUFORT MCAS  MOSUNNY   86  71  60 N10       30.07S HX  91
BEAUFORT ARPT  FAIR      82  72  69 N9        30.07S
HILTON HEAD IS NOT AVBL
WALTERBORO     PTSUNNY   82  72  69 N5        30.08S
ALLENDALE      FAIR      84  70  61 N7        30.08S

...SOUTHERN MIDLANDS AND PEE DEE...

CITY           SKY/WX    TMP DP  RH WIND       PRES   REMARKS
GEORGETOWN     PTSUNNY   81  72  74 N5        30.07S
KINGSTREE      PTSUNNY   82  68  61 NW6       30.07S
ORANGEBURG     MOSUNNY   84  71  65 NE6       30.08F
BARNWELL       NOT AVBL
AIKEN          FAIR      82  68  61 N5        30.13F
MANNING        FAIR      81  70  69 N3        30.08S
COLUMBIA       MOSUNNY   86  69  56 CALM      30.08S HX  90
SUMTER         MOSUNNY   82  70  65 NW3       30.06S
FLORENCE       SUNNY     82  70  66 VRB3      30.08F
MYRTLE BEACH   PTSUNNY   82  68  61 N8        30.08R
N MYRTLE BEACH MOSUNNY   83  73  72 VRB5      30.06R

$$

GAZ063-065-086>088-099>101-113>116-118-119-134>141-150-241700-
...SOUTHEAST GEORGIA...

CITY           SKY/WX    TMP DP  RH WIND       PRES   REMARKS
SAVANNAH ARPT  PTSUNNY   83  70  64 N6        30.08R
HUNTER AAF     PTSUNNY   83  76  81 NW8       30.05S HX  91
FORT STEWART   PTSUNNY   83  71  66 N2        30.06S
STATESBORO     MOSUNNY   87  74  65 N6        30.09R HX  94
SYLVANIA       NOT AVBL
CLAXTON        FAIR      85  72  65 NW5       30.08F HX  91

...CSRA...CENTRAL AND FAR SOUTHEAST GEORGIA...

CITY           SKY/WX    TMP DP  RH WIND       PRES   REMARKS
THOMSON        SUNNY     88  71  56 CALM      30.15S HX  93
AUGUSTA-BUSH   SUNNY     85  69  58 E5        30.08F
AUGUSTA-DANIEL SUNNY     86  66  51 NW5       30.10F
SWAINSBORO     FAIR      86  68  54 N3        30.10F
VIDALIA        MOSUNNY   88  73  62 CALM      30.09F HX  96
EASTMAN        FAIR      87  56  34 N3        30.12S
HAZLEHURST     FAIR      87  72  61 CALM      30.08F HX  92
ALMA           PTSUNNY   86  70  58 NW3       30.08F HX  90
WAYCROSS       PTSUNNY   88  74  63 NW3       30.08S HX  96
JESUP          FAIR      86  77  74 NE8       30.08F HX  97
BAXLEY         PTSUNNY   86  73  66 NE6       30.08F HX  93
BRUNSWICK      CLOUDY    86  75  70 NW6       30.08S HX  95
SAINT SIMONS   CLOUDY    83  71  67 NW7       30.08R

$$

SCZ027-028-034-036>038-045-046-048>050-GAZ119-141-241700-
...LAKE AND SUPPLEMENTAL COASTAL OBSERVATIONS...

STATION/POSITION TIME  TEMP    WIND        PRES    WAVE   SWELL
                       AIR SEA DIR/SP/G            HT/PER HT/PER/DIR
                 (UTC) (F)     (DEG/KT/KT) (MB)    (FT/S) (FT/S/D)
WINYAH BAY       1445   79      10/  4     1017.0
LAKE MURRAY      1520   81     170/  3/  4 1018.3
ACE BASIN NERRS  1445   82      10/  3     1018.0
FORT PULASKI     1548   80 81   10/  6/  7 1018.8R
SAPELO ISLAND    1500   82     320/  5     1018.0

$$

ANZ835-935-AMZ111-154-330-350-352-354-370-450-454-472-241700-
...C-MAN AND BUOY OBSERVATIONS...

STATION/POSITION TIME  TEMP    WIND        PRES    WAVE   SWELL
                       AIR SEA DIR/SP/G            HT/PER HT/PER/DIR
                 (UTC) (F)     (DEG/KT/KT) (MB)    (FT/S) (FT/S/D)
BUOY 41004       1550   79 83   20/ 16/ 19 1016.6S   3/11   3/ 90/11
BUOY 41008       1550   79 82  340/  8/ 10 1018.2R   2/11   2/ 90/11
FOLLY BEACH CMAN 1600   81      10/  8/ 10 1018.2R
CAPERS NEARSHORE 1508   78 81   10/ 10/ 14 1017.8R
FRIPP NEARSHORE  NOT AVBL


STATION/POSITION TIME  TEMP    WIND        PRES    WAVE   SWELL
                       AIR SEA DIR/SP/G            HT/PER HT/PER/DIR
                 (UTC) (F)     (DEG/KT/KT) (MB)    (FT/S) (FT/S/D)
5E ST. MARYS GA  1501      82                N/A     3/11   2/110/11
FRYING PAN BUOY  1550   80 82   20/ 12/ 16 1017.0R   3/11   3/120/11
BUOY 41025       1550   77 81   10/  8/ 12 1016.7S   4/11   5/100/11
CAPE LOOKOUT NC  1600   81      10/  9/ 13 1016.9S
BUOY 41002       1550   82 83  270/  8/ 10 1016.4R   4/11   5/100/11
BUOY 41010       NOT AVBL
ST AUGUSTINE FL  1600   82 84   30/  9/ 10 1018.8F


$$



USA.gov is the U.S. government's official web portal to all federal, state and local government web resources and services.